SL-14 DEB

基本信息
目录编号:
45290
目录名称:
SL-14 DEB
国际标识:
1991-056AC
轨道中心:
EARTH
物体状态:
在轨
发射日期:
1991-08-15 UTC
轨道信息
数据来源: 国际轨道数据
星历时间: 2026-09-10T23:28:52+0800
半长轴: 7475.498km
偏心率: 0.0100574
轨道倾角: 82.636°
近地点辐角: 51.070°
升交点赤经: 39.000°
平近点角: 309.935°
近地点: 1022.176km
远地点: 1172.546km
周期: 107.206分钟
每日圈数: 13.432059
详细信息
发射场:
PKMTR
轨道高度:
LEO
数据来源:
AOE Integration Group
参考系:
TEME
时间系统:
UTC
历元类型:
SGP4
2D轨道图
3D轨道图
轨道高度分析图
轨道倾角分析图
轨道综合分析图
查看轨道综合分析图